Flag for Netherlands Weather past 2 weeks in Haarlem, Netherlands

Now
45 °F

Drizzle. Broken clouds.


Feels Like: 38 °F
Forecast: 45 / 49 °F
Wind: 15 mph from South

Location: Amsterdam Schiphol Airport

Current Time: Mar 28, 2015 at 11:11:54 AM

Latest Report: Mar 28, 2015 at 10:25 AM


Visibility: N/A

Pressure: 29.98 "Hg

Humidity: 87%

Dew point: 41 °F

Location of HaarlemLocation

Historic Weather in Haarlem — Graph

°F

Haarlem temperature yesterday

Maximum temperature yesterday: 46 °F (at 11:55 AM)
Minimum temperature yesterday: 34 °F (at 11:25 PM)
Average temperature yesterday: 43 °F

Past Weeks' High & Low Weather Summary

 TemperatureHumidityPressure
High59 °F (Mar 17, 1:25 PM)100% (Mar 17, 4:55 AM)30.42 "Hg (Mar 17, 4:55 AM)
Low28 °F (Mar 23, 6:55 AM)48% (Mar 17, 1:55 PM)29.62 "Hg (Mar 26, 2:55 PM)
Average42 °F83%30.14 "Hg
* Reported Mar 13 9:25 AM — Mar 28 9:55 AM, Haarlem, Weather by CustomWeather, © 2015

Note: Actual official high and low records may vary slightly from our data, if they occured in-between our weather recording intervals... More about our weather records

Advertising

Haarlem weather history for previous 24 hours

 ConditionsComfort  
Time TempWeatherWind HumidityBarometerVisibility
9:55 AM
Sat, Mar 28
45 °FPartly sunny.15 mph76%30.01 "HgN/A
9:25 AM45 °FPartly sunny.14 mph76%30.01 "HgN/A
8:55 AM43 °FPartly sunny.12 mph76%30.04 "HgN/A
8:25 AM41 °FPassing clouds.10 mph81%30.04 "HgN/A
7:55 AM39 °FPartly sunny.10 mph81%30.07 "HgN/A
7:25 AM39 °FPartly sunny.10 mph81%30.07 "HgN/A
6:55 AM37 °FScattered clouds.10 mph87%30.07 "HgN/A
6:25 AM37 °FPassing clouds.8 mph81%30.09 "HgN/A
5:55 AM36 °FClear.6 mph87%30.09 "Hg10 mi
5:25 AM36 °FClear.8 mph87%30.12 "Hg10 mi
4:55 AM36 °FClear.7 mph93%30.12 "Hg10 mi
4:25 AM36 °FClear.7 mph93%30.12 "Hg10 mi
3:55 AM36 °FClear.7 mph93%30.12 "Hg10 mi
3:25 AM36 °FClear.7 mph93%30.15 "Hg10 mi
2:55 AM34 °FClear.7 mph100%30.15 "Hg10 mi
2:25 AM34 °FClear.8 mph93%30.15 "Hg10 mi
1:55 AM34 °FClear.7 mph93%30.15 "Hg10 mi
1:25 AM34 °FClear.7 mph93%30.18 "Hg10 mi
12:55 AM34 °FClear.8 mph93%30.18 "Hg10 mi
12:25 AM34 °FClear.6 mph93%30.18 "Hg10 mi
11:55 PM
Fri, Mar 27
36 °FClear.3 mph93%30.18 "Hg10 mi
11:25 PM34 °FClear.7 mph100%30.18 "Hg10 mi
10:55 PM36 °FClear.7 mph93%30.18 "Hg10 mi
10:25 PM37 °FClear.8 mph93%30.18 "Hg10 mi
9:55 PM37 °FClear.6 mph93%30.18 "Hg10 mi
9:25 PM39 °FPassing clouds.6 mph87%30.18 "HgN/A
8:55 PM41 °FPassing clouds.8 mph87%30.18 "HgN/A
8:25 PM41 °FClear.9 mph87%30.18 "Hg10 mi
7:55 PM41 °FClear.7 mph87%30.18 "Hg10 mi
7:25 PM41 °FPassing clouds.9 mph87%30.15 "HgN/A
6:55 PM43 °FPassing clouds.14 mph81%30.15 "HgN/A
6:25 PM43 °FPassing clouds.13 mph87%30.15 "HgN/A
5:55 PM45 °FScattered clouds.13 mph81%30.12 "HgN/A
5:25 PM46 °FScattered clouds.16 mph76%30.12 "HgN/A
4:55 PM46 °FScattered clouds.16 mph76%30.12 "HgN/A
4:25 PM46 °FScattered clouds.16 mph76%30.12 "HgN/A
3:55 PM46 °FBroken clouds.16 mph76%30.09 "HgN/A
3:25 PM46 °FPartly sunny.17 mph82%30.09 "HgN/A
2:55 PM46 °FPartly sunny.20 mph76%30.09 "HgN/A
2:25 PM46 °FBroken clouds.20 mph82%30.07 "HgN/A
1:55 PM46 °FPartly sunny.20 mph82%30.07 "HgN/A
1:25 PM46 °FBroken clouds.21 mph82%30.07 "HgN/A
12:55 PM45 °FSprinkles. Broken clouds.21 mph81%30.04 "HgN/A
12:25 PM46 °FBroken clouds.22 mph82%30.04 "HgN/A
11:55 AM46 °FScattered showers. Partly sunny.22 mph82%30.01 "HgN/A
11:25 AM45 °FSprinkles. Broken clouds.23 mph87%30.01 "HgN/A
Weather by CustomWeather, © 2015

See weather overviewHow to use our weather pages